(124273) = 2000 EW173 = 2001 QU19

Discovered at Socorro on 2001-08-16 by LINEAR.

Orbit

Orbit type: Main Belt

Note: WebGL enabled browser required.

epoch2023-09-13.0
epoch JD2460200.5
perihelion date2023-01-20.11096
perihelion JD2459964.61096
argument of perihelion (°)322.12272
ascending node (°)334.51392
inclination (°)2.01378
eccentricity0.2073349
perihelion distance (AU)1.8687873
Tisserand w.r.t. Jupiter3.5
ΔV w.r.t. Earth (km/sec)8.5
semimajor axis (AU)2.3576000
mean anomaly (°)64.22534
mean daily motion (°/day)0.27226930
aphelion distance (AU)2.846
period (years)3.62
P-vector [x]0.44849409
P-vector [y]-0.81121150
P-vector [z]-0.37521853
Q-vector [x]0.89365789
Q-vector [y]0.39989878
Q-vector [z]0.20360881
absolute magnitude16.74
phase slope0.15
uncertainty0
referenceMPEC 2024-A141
observations used798
oppositions17
arc length (days)8713
first opposition used2000
last opposition used2024
residual rms (arc-secs)0.63
perturbers coarse indicatorM-v
perturbers precise indicator003Ek
first observation date used2000-03-04.0
last observation date used2024-01-11.0
computer nameMPCLINUX
JD of orbit computation2456700.486537
perihelion JD uncertainty (days)7.5784E-05
argument of perihelion uncertainty (°)1.2671E-04
ascending node uncertainty (°)1.2552E-04
inclination uncertainty (°)5.6836E-06
eccentricity uncertainty 4.0971E-08
perihelion distance uncertainty (AU)9.3924E-08
Minimum Orbit Intersection Distances (in AU)
for orbit epoch: 2460200.5, reference: E2024-AE1
Mercury1.42132
Venus1.1409
Earth0.85282
Mars0.44541
Jupiter2.35449
Saturn6.23909
Uranus15.7205
Neptune27.2726

Observations

810 total observations over interval: 2000 03 04.35799 – 2024 01 11.135124
These data are available for download (format description).

Date (UT) J2000 RA J2000 Dec Magn Location Ref
2000 03 04.35799 10 44 17.63 +07 36 44.7 21.1 V 691 – Steward Observatory, Kitt Peak-Spacewatch MPS 16923
2000 03 04.37889 10 44 16.33 +07 36 51.9 19.9 V 691 – Steward Observatory, Kitt Peak-Spacewatch MPS 16923
2000 03 04.39964 10 44 15.05 +07 36 58.5 19.9 V 691 – Steward Observatory, Kitt Peak-Spacewatch MPS 16923
2000 03 15.23494 10 33 42.70 +08 31 58.0 20.7 V 691 – Steward Observatory, Kitt Peak-Spacewatch MPS 16923
2000 03 15.25660 10 33 41.45 +08 32 04.0 20.6 V 691 – Steward Observatory, Kitt Peak-Spacewatch MPS 16923
2000 03 15.29718 10 33 39.15 +08 32 15.3 20.8 V 691 – Steward Observatory, Kitt Peak-Spacewatch MPS 16923
2001 08 16.33159 23 42 48.80 -01 30 56.2 19.1   704 – Lincoln Laboratory ETS, New Mexico MPS 33519
2001 08 16.34361 23 42 48.32 -01 30 56.9 19.1   704 – Lincoln Laboratory ETS, New Mexico MPS 33519
2001 08 16.35562 23 42 47.87 -01 30 58.6 19.4   704 – Lincoln Laboratory ETS, New Mexico MPS 33519
2001 08 16.36767 23 42 47.47 -01 30 59.0 19.3   704 – Lincoln Laboratory ETS, New Mexico MPS 33519
2001 08 16.37973 23 42 47.11 -01 31 00.3 19.4   704 – Lincoln Laboratory ETS, New Mexico MPS 33519
2001 08 18.33248 23 41 43.15 -01 34 27.3 18.2   704 – Lincoln Laboratory ETS, New Mexico MPS 33519
2001 08 18.34466 23 41 42.70 -01 34 27.7 18.6   704 – Lincoln Laboratory ETS, New Mexico MPS 33519
2001 08 18.38124 23 41 41.39 -01 34 31.5 19.4   704 – Lincoln Laboratory ETS, New Mexico MPS 33519
2001 08 18.40358 23 41 40.52 -01 34 34.0 18.9   644 – Palomar Mountain/NEAT MPS 33519
2001 08 18.41415 23 41 40.13 -01 34 35.4 18.6   644 – Palomar Mountain/NEAT MPS 33519
2001 08 18.42520 23 41 39.72 -01 34 36.6 18.8   644 – Palomar Mountain/NEAT MPS 33519
2001 08 21.40801 23 39 48.61 -01 41 15.3 19.4 V 691 – Steward Observatory, Kitt Peak-Spacewatch MPS 33519
2001 08 21.42960 23 39 47.69 -01 41 18.4 19.3 V 691 – Steward Observatory, Kitt Peak-Spacewatch MPS 33519
2001 08 21.45070 23 39 46.85 -01 41 22.2 18.9 V 691 – Steward Observatory, Kitt Peak-Spacewatch MPS 33519
2001 08 23.36760 23 38 27.92 -01 46 25.3 18.6 R 699 – Lowell Observatory-LONEOS MPS 33519
2001 08 23.38326 23 38 27.19 -01 46 28.1   699 – Lowell Observatory-LONEOS MPS 33519
2001 08 23.39898 23 38 26.50 -01 46 30.2   699 – Lowell Observatory-LONEOS MPS 33519
2001 08 23.41469 23 38 25.77 -01 46 34.1   699 – Lowell Observatory-LONEOS MPS 33519
2001 08 24.34509 23 37 45.54 -01 49 14.3 17.5   704 – Lincoln Laboratory ETS, New Mexico MPS 33519
2001 08 24.37130 23 37 44.31 -01 49 18.4 18.6   704 – Lincoln Laboratory ETS, New Mexico MPS 33519
2001 08 24.38441 23 37 43.68 -01 49 21.4 19.1   704 – Lincoln Laboratory ETS, New Mexico MPS 33519
2001 08 24.39754 23 37 43.07 -01 49 23.5 18.7   704 – Lincoln Laboratory ETS, New Mexico MPS 33519
2001 09 07.20146 23 25 55.35 -02 41 11.6 18.2   704 – Lincoln Laboratory ETS, New Mexico MPS 34607
2001 09 07.21531 23 25 54.47 -02 41 14.3 18.4   704 – Lincoln Laboratory ETS, New Mexico MPS 34607
2001 09 07.22913 23 25 53.71 -02 41 18.3 18.8   704 – Lincoln Laboratory ETS, New Mexico MPS 34607
2001 09 07.24299 23 25 52.90 -02 41 22.5 18.8   704 – Lincoln Laboratory ETS, New Mexico MPS 34607
2001 09 07.25688 23 25 52.05 -02 41 25.6 18.6   704 – Lincoln Laboratory ETS, New Mexico MPS 34607
2001 09 11.19597 23 22 11.18 -02 58 37.6 17.8 R 699 – Lowell Observatory-LONEOS MPS 34607
2001 09 11.22192 23 22 09.70 -02 58 45.0   699 – Lowell Observatory-LONEOS MPS 34607
2001 09 11.24783 23 22 08.19 -02 58 51.5   699 – Lowell Observatory-LONEOS MPS 34607
2001 09 11.27362 23 22 06.67 -02 58 58.3   699 – Lowell Observatory-LONEOS MPS 34607
2001 09 12.33263 23 21 07.02 -03 03 39.0 18.0   704 – Lincoln Laboratory ETS, New Mexico MPS 34607
2001 09 12.34679 23 21 06.19 -03 03 42.4 18.4   704 – Lincoln Laboratory ETS, New Mexico MPS 34607
2001 09 12.36091 23 21 05.36 -03 03 46.8 17.9   704 – Lincoln Laboratory ETS, New Mexico MPS 34607
2001 09 12.37502 23 21 04.53 -03 03 50.4 18.5   704 – Lincoln Laboratory ETS, New Mexico MPS 34607
2001 09 12.38914 23 21 03.70 -03 03 53.7 18.2   704 – Lincoln Laboratory ETS, New Mexico MPS 34607
2001 09 18.23579 23 15 44.09 -03 29 16.1 18.9 V 691 – Steward Observatory, Kitt Peak-Spacewatch MPS 35935
2001 09 18.25690 23 15 42.90 -03 29 21.4 18.7 V 691 – Steward Observatory, Kitt Peak-Spacewatch MPS 35935
2001 09 18.27785 23 15 41.72 -03 29 27.2 19.9 V 691 – Steward Observatory, Kitt Peak-Spacewatch MPS 35935
2001 09 20.24763 23 13 59.04 -03 37 39.9 18.5   704 – Lincoln Laboratory ETS, New Mexico MPS 35935
2001 09 20.26179 23 13 58.31 -03 37 43.5 18.5   704 – Lincoln Laboratory ETS, New Mexico MPS 35935
2001 09 20.27593 23 13 57.52 -03 37 46.7 19.1   704 – Lincoln Laboratory ETS, New Mexico MPS 35935
2001 09 20.29008 23 13 56.77 -03 37 50.4 18.7   704 – Lincoln Laboratory ETS, New Mexico MPS 35935
2001 09 20.30422 23 13 55.98 -03 37 53.6 18.6   704 – Lincoln Laboratory ETS, New Mexico MPS 35935
2001 09 21.24942 23 13 08.26 -03 41 43.8 17.9   704 – Lincoln Laboratory ETS, New Mexico MPS 35935
2001 09 21.26362 23 13 07.51 -03 41 47.4 18.3   704 – Lincoln Laboratory ETS, New Mexico MPS 35935
2001 09 21.27776 23 13 06.76 -03 41 50.7 18.9   704 – Lincoln Laboratory ETS, New Mexico MPS 35935
2001 09 21.29191 23 13 06.00 -03 41 53.7 18.5   704 – Lincoln Laboratory ETS, New Mexico MPS 35935
2001 09 21.30606 23 13 05.28 -03 41 57.4 18.2   704 – Lincoln Laboratory ETS, New Mexico MPS 35935
2001 09 22.25181 23 12 18.44 -03 45 41.8 19.2   704 – Lincoln Laboratory ETS, New Mexico MPS 35935
2001 09 22.28015 23 12 16.90 -03 45 48.7 19.1   704 – Lincoln Laboratory ETS, New Mexico MPS 35935
2001 09 22.29433 23 12 16.23 -03 45 52.6 19.2   704 – Lincoln Laboratory ETS, New Mexico MPS 35935
2001 09 22.30851 23 12 15.42 -03 45 55.6 18.9   704 – Lincoln Laboratory ETS, New Mexico MPS 35935
2001 09 23.24776 23 11 30.03 -03 49 32.7 19.0   704 – Lincoln Laboratory ETS, New Mexico MPS 35935
2001 09 23.26193 23 11 29.29 -03 49 37.4 19.4   704 – Lincoln Laboratory ETS, New Mexico MPS 35935
2001 09 23.27609 23 11 28.53 -03 49 39.8 19.1   704 – Lincoln Laboratory ETS, New Mexico MPS 35935
2001 09 23.29026 23 11 27.86 -03 49 43.1 19.1   704 – Lincoln Laboratory ETS, New Mexico MPS 35935
2001 09 23.30441 23 11 27.11 -03 49 46.3 19.0   704 – Lincoln Laboratory ETS, New Mexico MPS 35935
2001 10 11.17985 23 01 09.63 -04 37 42.9 19.6   644 – Palomar Mountain/NEAT MPS 37752
2001 10 11.20095 23 01 09.16 -04 37 44.7 19.6   644 – Palomar Mountain/NEAT MPS 37752
2001 10 11.22316 23 01 08.69 -04 37 46.3 19.5   644 – Palomar Mountain/NEAT MPS 37752
2004 03 27.34663 13 52 01.76 -14 08 22.5 19.2   704 – Lincoln Laboratory ETS, New Mexico MPS 155190
2004 03 27.35734 13 52 01.29 -14 08 20.1 20.5   704 – Lincoln Laboratory ETS, New Mexico MPS 155190
2004 03 27.36711 13 52 00.90 -14 08 18.4 19.9   704 – Lincoln Laboratory ETS, New Mexico MPS 155190
2004 03 27.37705 13 52 00.39 -14 08 18.0 19.8   704 – Lincoln Laboratory ETS, New Mexico MPS 155190
2004 04 12.30256 13 38 04.67 -13 11 28.8 19.5 R 699 – Lowell Observatory-LONEOS MPS 155190
2004 04 12.32202 13 38 03.43 -13 11 23.9   699 – Lowell Observatory-LONEOS MPS 155190
2004 04 12.34146 13 38 02.20 -13 11 18.9   699 – Lowell Observatory-LONEOS MPS 155190
2004 04 12.34211 13 38 02.18 -13 11 18.9 19.2 V 691 – Steward Observatory, Kitt Peak-Spacewatch MPS 104988
2004 04 12.36093 13 38 00.97 -13 11 14.7   699 – Lowell Observatory-LONEOS MPS 155190
2004 04 12.37068 13 38 00.40 -13 11 11.1 19.4 V 691 – Steward Observatory, Kitt Peak-Spacewatch MPS 104988
2004 04 12.39920 13 37 58.63 -13 11 02.9 19.4 V 691 – Steward Observatory, Kitt Peak-Spacewatch MPS 104988
2004 04 15.30344 13 35 03.94 -12 57 25.6 19.2 R 699 – Lowell Observatory-LONEOS MPS 104988
2004 04 15.32286 13 35 02.69 -12 57 20.0   699 – Lowell Observatory-LONEOS MPS 104988
2004 04 15.34229 13 35 01.40 -12 57 13.7   699 – Lowell Observatory-LONEOS MPS 104988
2004 04 15.36167 13 35 00.19 -12 57 07.0   699 – Lowell Observatory-LONEOS MPS 104988
2004 04 17.24760 13 33 05.56 -12 47 54.0 19.1   704 – Lincoln Laboratory ETS, New Mexico MPS 104988
2004 04 17.25826 13 33 04.86 -12 47 50.7 19.4   704 – Lincoln Laboratory ETS, New Mexico MPS 104988
